TimeCST,TemperatureF,Dew PointF,Humidity,Sea Level PressureIn,VisibilityMPH,Wind Direction,Wind SpeedMPH,Gust SpeedMPH,PrecipitationIn,Events,Conditions,WindDirDegrees,DateUTC
12:53 AM,25.0,21.0,85,30.03,5.0,NNE,6.9,-,N/A,,Overcast,20,2013-02-07 06:53:00
1:53 AM,25.0,19.9,81,30.03,6.0,North,6.9,-,N/A,,Haze,10,2013-02-07 07:53:00
2:53 AM,24.1,19.9,84,30.04,6.0,NNE,5.8,-,N/A,,Overcast,20,2013-02-07 08:53:00
3:53 AM,24.1,19.9,84,30.04,6.0,North,8.1,-,N/A,,Overcast,10,2013-02-07 09:53:00
4:40 AM,24.8,19.4,80,30.01,5.0,NNE,9.2,-,N/A,,Overcast,20,2013-02-07 10:40:00
4:53 AM,24.1,19.9,84,30.06,4.0,North,9.2,-,N/A,,Overcast,10,2013-02-07 10:53:00
5:53 AM,24.1,21.0,88,30.06,3.0,NNE,6.9,-,N/A,,Overcast,20,2013-02-07 11:53:00
6:53 AM,24.1,21.0,88,30.06,3.0,NNE,6.9,-,N/A,,Overcast,20,2013-02-07 12:53:00
7:53 AM,24.1,21.0,88,30.09,2.5,North,6.9,-,N/A,,Overcast,360,2013-02-07 13:53:00
8:43 AM,23.0,21.2,93,30.07,3.0,North,9.2,-,N/A,,Overcast,10,2013-02-07 14:43:00
8:53 AM,23.0,21.0,92,30.12,2.5,North,9.2,-,N/A,,Overcast,10,2013-02-07 14:53:00
9:13 AM,24.8,21.2,86,30.08,3.0,NNE,8.1,-,N/A,,Overcast,20,2013-02-07 15:13:00
9:20 AM,24.8,21.2,86,30.08,2.5,NNE,8.1,-,N/A,,Overcast,20,2013-02-07 15:20:00
9:53 AM,24.1,21.0,88,30.13,2.5,NNE,6.9,-,N/A,,Overcast,30,2013-02-07 15:53:00
10:53 AM,25.0,21.0,85,30.14,3.0,North,10.4,-,N/A,,Overcast,10,2013-02-07 16:53:00
11:15 AM,24.8,19.4,80,30.10,6.0,North,11.5,-,N/A,,Haze,10,2013-02-07 17:15:00
11:53 AM,25.0,19.9,81,30.16,7.0,North,12.7,18.4,N/A,,Overcast,10,2013-02-07 17:53:00
12:24 PM,24.8,21.2,86,30.11,2.5,NNE,12.7,-,0.00,Rain,Light Freezing Rain,20,2013-02-07 18:24:00
12:53 PM,25.0,21.0,85,30.14,2.5,North,10.4,-,0.00,Rain,Light Freezing Rain,10,2013-02-07 18:53:00
1:11 PM,24.8,21.2,86,30.10,2.5,North,8.1,-,0.00,,Overcast,10,2013-02-07 19:11:00
1:50 PM,26.6,21.2,80,30.09,2.5,North,11.5,-,0.00,,Haze,10,2013-02-07 19:50:00
1:53 PM,26.1,21.0,81,30.13,2.5,North,11.5,-,0.00,,Haze,10,2013-02-07 19:53:00
2:00 PM,26.6,21.2,80,30.09,10.0,North,8.1,-,N/A,,Overcast,10,2013-02-07 20:00:00
2:53 PM,26.1,19.9,78,30.14,10.0,North,11.5,-,N/A,,Overcast,360,2013-02-07 20:53:00
3:53 PM,27.0,19.0,72,30.16,10.0,North,12.7,-,N/A,,Overcast,350,2013-02-07 21:53:00
4:53 PM,27.0,19.0,72,30.18,10.0,North,10.4,-,N/A,,Overcast,10,2013-02-07 22:53:00
5:31 PM,26.6,19.4,74,30.15,10.0,North,10.4,18.4,N/A,,Overcast,10,2013-02-07 23:31:00
5:40 PM,26.6,19.4,74,30.16,10.0,North,11.5,-,N/A,,Overcast,10,2013-02-07 23:40:00
5:53 PM,27.0,19.0,72,30.20,10.0,North,8.1,-,N/A,,Overcast,10,2013-02-07 23:53:00
6:53 PM,27.0,19.0,72,30.22,10.0,North,9.2,-,N/A,,Overcast,360,2013-02-08 00:53:00
7:53 PM,27.0,19.0,72,30.24,10.0,North,6.9,-,N/A,,Overcast,350,2013-02-08 01:53:00
8:53 PM,26.1,19.9,78,30.25,10.0,North,8.1,-,N/A,,Overcast,360,2013-02-08 02:53:00
9:53 PM,26.1,19.9,78,30.26,10.0,North,8.1,-,N/A,,Overcast,350,2013-02-08 03:53:00
10:53 PM,25.0,19.0,78,30.28,10.0,North,6.9,-,N/A,,Overcast,360,2013-02-08 04:53:00
11:53 PM,25.0,19.0,78,30.28,10.0,NNE,6.9,-,N/A,,Overcast,30,2013-02-08 05:53:00